EW2067 Weather Reports


time (UTC)temp
C
wind
direction
speed
KPH
gust
KPH
rain 1hr
cm
rain 24hr
cm
rain mn
cm
humidity
%
barometer
mb
20260502161907 12 359 0.0 0.0 0.00 0.00 0.00 47 1020.3
20260502161401 12 354 0.0 0.0 0.00 0.00 0.00 48 1020.2
20260502160855 12 337 0.0 0.0 0.00 0.00 0.00 50 1020.3
20260502160349 12 345 0.0 0.0 0.00 0.00 0.00 50 1020.3
20260502152301 10 4 0.0 0.0 0.00 0.00 0.00 50 1020.6
20260502151755 10 6 0.0 0.0 0.00 0.00 0.00 51 1020.5
20260502151249 10 328 0.0 0.0 0.00 0.00 0.00 51 1020.6
20260502150743 9 315 0.0 0.0 0.00 0.00 0.00 51 1020.5
20260502150237 9 315 0.0 0.0 0.00 0.00 0.00 52 1020.6
20260502140125 6 314 0.0 0.0 0.00 0.00 0.00 51 1021.2
20260502130519 3 314 0.0 0.0 0.00 0.00 0.00 50 1021.7
20260502123443 3 315 0.0 0.0 0.00 0.00 0.00 55 1021.6
20260502122937 3 315 0.0 0.0 0.00 0.00 0.00 56 1021.6
20260502122431 3 315 0.0 0.0 0.00 0.00 0.00 56 1021.5
20260502121925 3 315 0.0 0.0 0.00 0.00 0.00 56 1021.5
20260502121419 4 315 0.0 0.0 0.00 0.00 0.00 56 1021.5
20260502120913 4 315 0.0 0.0 0.00 0.00 0.00 55 1021.4
20260502120407 5 315 0.0 0.0 0.00 0.00 0.00 55 1021.3
20260502115901 5 315 0.0 0.0 0.00 0.00 0.00 55 1021.3
20260502115355 5 315 0.0 0.0 0.00 0.00 0.00 55 1021.3
20260502114849 4 315 0.0 0.0 0.00 0.00 0.00 56 1021.3
20260502114343 5 315 0.0 0.0 0.00 0.00 0.00 56 1021.3
20260502113837 5 200 0.0 0.0 0.00 0.00 0.00 56 1021.3
20260502113331 5 134 0.0 0.0 0.00 0.00 0.00 56 1021.3
20260502112825 5 134 0.0 0.0 0.00 0.00 0.00 56 1021.3
20260502112319 5 134 0.0 0.0 0.00 0.00 0.00 55 1021.2
20260502111813 5 134 0.0 0.0 0.00 0.00 0.00 55 1021.2
20260502111307 5 146 0.0 0.0 0.00 0.00 0.00 54 1021.2
20260502110801 5 106 0.0 0.0 0.00 0.00 0.00 54 1021.2
20260502110255 5 105 0.0 0.0 0.00 0.00 0.00 55 1021.2
20260502105749 5 104 0.0 0.0 0.00 0.00 0.00 56 1021.3
20260502105243 5 103 0.0 0.0 0.00 0.00 0.00 56 1021.3
20260502104737 5 103 0.0 0.0 0.00 0.00 0.00 56 1021.3
20260502104231 5 103 0.0 0.0 0.00 0.00 0.00 56 1021.2
20260502103725 5 103 0.0 0.0 0.00 0.00 0.00 56 1021.2
20260502103219 5 103 0.0 0.0 0.00 0.00 0.00 55 1021.2
20260502102713 6 103 0.0 0.0 0.00 0.00 0.00 54 1021.1
20260502102207 6 103 0.0 0.0 0.00 0.00 0.00 53 1021.1
20260502101701 6 102 0.0 0.0 0.00 0.00 0.00 53 1021.1
20260502101155 6 115 0.0 0.0 0.00 0.00 0.00 52 1021.0
20260502100649 6 122 0.0 0.0 0.00 0.00 0.00 52 1021.1
20260502100143 7 123 0.0 0.0 0.00 0.00 0.00 50 1021.1
20260502091043 6 152 0.0 0.0 0.00 0.00 0.00 54 1021.1
20260502090537 6 152 0.0 0.0 0.00 0.00 0.00 54 1021.0
20260502071325 8 141 0.0 0.0 0.00 0.00 0.00 48 1020.8
20260502070819 8 119 0.0 0.0 0.00 0.00 0.00 47 1020.8
20260502070251 8 115 0.0 0.0 0.00 0.00 0.00 48 1020.8
20260502065745 8 140 0.0 0.0 0.00 0.00 0.00 49 1020.7
20260502065239 8 147 0.0 0.0 0.00 0.00 0.00 50 1020.7
20260502064733 8 161 0.0 0.0 0.00 0.00 0.00 51 1020.7
20260502064227 8 167 0.0 0.0 0.00 0.00 0.00 52 1020.6
20260502063721 8 170 0.0 0.0 0.00 0.00 0.00 52 1020.5
20260502063215 9 218 0.0 0.0 0.00 0.00 0.00 49 1020.5
20260502062709 10 131 0.0 0.0 0.00 0.00 0.00 45 1020.4
20260502062203 10 133 0.0 0.0 0.00 0.00 0.00 46 1020.4
20260502061657 9 144 0.0 0.0 0.00 0.00 0.00 48 1020.4
20260502061151 9 149 0.0 0.0 0.00 0.00 0.00 48 1020.3
20260502060645 9 160 0.0 0.0 0.00 0.00 0.00 50 1020.3
20260502060139 9 155 0.0 0.0 0.00 0.00 0.00 50 1020.3
20260502055633 9 162 0.0 0.0 0.00 0.00 0.00 50 1020.3
20260502055127 8 139 0.0 0.0 0.00 0.00 0.00 52 1020.2
20260502054621 8 143 0.0 0.0 0.00 0.00 0.00 54 1020.2
20260502054115 7 154 0.0 0.0 0.00 0.00 0.00 55 1020.2
20260502053609 8 179 0.0 0.0 0.00 0.00 0.00 55 1020.2
20260502053103 8 199 0.0 0.0 0.00 0.00 0.00 55 1020.1
20260502052557 9 190 0.0 0.0 0.00 0.00 0.00 51 1020.1
20260502052051 10 138 0.0 0.0 0.00 0.00 0.00 49 1020.0
20260502051545 10 133 0.0 0.0 0.00 0.00 0.00 49 1019.9
20260502051039 10 135 0.0 0.0 0.00 0.00 0.00 49 1019.9
20260502050533 10 133 0.0 0.0 0.00 0.00 0.00 50 1019.9
20260502050027 10 145 0.0 0.0 0.00 0.00 0.00 50 1020.0
20260502045521 10 130 0.0 0.0 0.00 0.00 0.00 50 1020.0
20260502045015 10 133 0.0 0.0 0.00 0.00 0.00 51 1020.0
20260502044509 10 131 0.0 0.0 0.00 0.00 0.00 52 1020.0
20260502044003 10 143 0.0 0.0 0.00 0.00 0.00 53 1020.0
20260502043457 10 143 0.0 0.0 0.00 0.00 0.00 53 1020.0
20260502042951 10 142 0.0 0.0 0.00 0.00 0.00 53 1020.0
20260502042445 10 143 0.0 0.0 0.00 0.00 0.00 53 1020.0
20260502041939 9 135 0.0 0.0 0.00 0.00 0.00 53 1020.0
20260502041433 10 132 0.0 0.0 0.00 0.00 0.00 53 1020.0
20260502040927 9 132 0.0 0.0 0.00 0.00 0.00 53 1019.9
20260502040421 10 131 0.0 0.0 0.00 0.00 0.00 53 1019.9
20260502035915 10 130 0.0 0.0 0.00 0.00 0.00 52 1019.8
20260502035409 10 125 0.0 0.0 0.00 0.00 0.00 52 1019.8
20260502034903 10 124 0.0 0.0 0.00 0.00 0.00 51 1019.7
20260502034357 11 124 0.0 0.0 0.00 0.00 0.00 49 1019.6
20260502033851 12 305 0.0 0.0 0.00 0.00 0.00 46 1019.5
20260502033345 12 306 0.0 0.0 0.00 0.00 0.00 45 1019.4
20260502032839 12 306 0.0 0.0 0.00 0.00 0.00 46 1019.4
20260502032333 12 306 0.0 0.0 0.00 0.00 0.00 46 1019.3
20260502031827 12 306 0.0 0.0 0.00 0.00 0.00 47 1019.2
20260502031321 12 306 0.0 0.0 0.00 0.00 0.00 46 1019.2
20260502030815 12 306 0.0 0.0 0.00 0.00 0.00 45 1019.1
20260502030309 12 307 0.0 0.0 0.00 0.00 0.00 45 1019.0
20260502025803 13 307 0.0 0.0 0.00 0.00 0.00 44 1018.9
20260502025257 13 307 0.0 0.0 0.00 0.00 0.00 43 1018.7
20260502024751 13 307 0.0 0.0 0.00 0.00 0.00 40 1018.6
20260502024245 14 307 0.0 0.0 0.00 0.00 0.00 38 1018.6
20260502023739 14 307 0.0 0.0 0.00 0.00 0.00 37 1018.6
20260502023233 15 307 0.0 0.0 0.00 0.00 0.00 38 1018.5
20260502022727 15 307 0.0 0.0 0.00 0.00 0.00 40 1018.4
20260502022221 15 307 0.0 0.0 0.00 0.00 0.00 38 1018.4
20260502021715 15 307 0.0 0.0 0.00 0.00 0.00 36 1018.4
20260502021209 16 307 0.0 0.0 0.00 0.00 0.00 34 1018.3
20260502020703 16 308 0.0 0.0 0.00 0.00 0.00 34 1018.2
20260502020157 16 308 0.0 0.0 0.00 0.00 0.00 35 1018.2
20260502015651 17 308 0.0 0.0 0.00 0.00 0.00 34 1018.1
20260502015145 17 308 0.0 0.0 0.00 0.00 0.00 32 1018.1
20260502014639 18 315 0.0 0.0 0.00 0.00 0.00 31 1018.0
20260502014133 18 315 0.0 0.0 0.00 0.00 0.00 31 1018.0
20260502013627 18 318 0.0 0.0 0.00 0.00 0.00 26 1017.9
20260502013121 18 319 0.0 0.0 0.00 0.00 0.00 27 1017.9
20260502012615 18 318 0.0 0.0 0.00 0.00 0.00 26 1017.8
20260502012109 18 319 0.0 0.0 0.00 0.00 0.00 23 1017.8
20260502011603 18 319 0.0 0.0 0.00 0.00 0.00 22 1017.8
20260502011057 18 318 0.0 0.0 0.00 0.00 0.00 23 1017.7
20260502010551 18 320 0.0 0.0 0.00 0.00 0.00 23 1017.7
20260502010045 19 324 0.0 0.0 0.00 0.00 0.00 27 1017.8
20260502005539 19 322 0.0 0.0 0.00 0.00 0.00 26 1017.8
20260502005033 19 320 0.0 0.0 0.00 0.00 0.00 25 1017.7
20260502004527 19 317 0.0 0.0 0.00 0.00 0.00 25 1017.7
20260502004021 19 323 0.0 0.0 0.00 0.00 0.00 25 1017.7
20260502003515 19 316 0.0 0.0 0.00 0.00 0.00 25 1017.7
20260502003009 19 322 0.0 0.0 0.00 0.00 0.00 25 1017.7
20260502002503 19 340 0.0 0.0 0.00 0.00 0.00 25 1017.7
20260502001957 19 331 0.0 0.0 0.00 0.00 0.00 23 1017.7
20260502001451 20 285 0.0 0.0 0.00 0.00 0.00 24 1017.7
20260502000945 19 314 0.0 0.0 0.00 0.00 0.00 25 1017.7
20260502000439 19 321 0.0 0.0 0.00 0.00 0.00 24 1017.8
20260501235933 19 287 0.0 0.0 0.00 0.00 0.00 25 1017.8
20260501235427 19 337 0.0 0.0 0.00 0.00 0.00 25 1017.8
20260501234921 19 325 0.0 0.0 0.00 0.00 0.00 24 1017.9
20260501234415 20 276 0.0 0.0 0.00 0.00 0.00 24 1017.9
20260501233909 19 308 0.0 0.0 0.00 0.00 0.00 24 1017.9
20260501233403 19 313 0.0 0.0 0.00 0.00 0.00 25 1017.9
20260501232857 19 303 0.0 0.0 0.00 0.00 0.00 24 1017.9
20260501232351 19 301 0.0 0.0 0.00 0.00 0.00 24 1017.9
20260501231845 19 303 0.0 0.0 0.00 0.00 0.00 23 1017.9
20260501231339 19 309 0.0 0.0 0.00 0.00 0.00 23 1017.9
20260501230833 19 293 0.0 0.0 0.00 0.00 0.00 23 1018.0
20260501230327 19 287 0.0 0.0 0.00 0.00 0.00 23 1018.0
20260501225821 19 314 0.0 0.0 0.00 0.00 0.00 24 1018.0
20260501225315 19 316 0.0 0.0 0.00 0.00 0.00 23 1018.0
20260501224809 19 296 0.0 0.0 0.00 0.00 0.00 23 1018.0
20260501224303 19 309 0.0 0.0 0.00 0.00 0.00 25 1018.1
20260501223757 19 297 0.0 0.0 0.00 0.00 0.00 24 1018.2
20260501223251 19 315 0.0 0.0 0.00 0.00 0.00 24 1018.3
20260501222744 18 298 0.0 0.0 0.00 0.00 0.00 24 1018.3
20260501222239 18 290 0.0 0.0 0.00 0.00 0.00 24 1018.4
20260501221733 18 312 0.0 0.0 0.00 0.00 0.00 23 1018.5
20260501221227 18 306 0.0 0.0 0.00 0.00 0.00 24 1018.5
20260501220721 18 227 0.0 0.0 0.00 0.00 0.00 25 1018.6
20260501220215 19 282 0.0 0.0 0.00 0.00 0.00 23 1018.6
20260501215709 18 326 0.0 0.0 0.00 0.00 0.00 26 1018.8
20260501215203 18 310 0.0 0.0 0.00 0.00 0.00 25 1018.8
20260501214656 18 319 0.0 0.0 0.00 0.00 0.00 25 1018.8
20260501214151 18 293 0.0 0.0 0.00 0.00 0.00 28 1018.8
20260501213644 18 302 0.0 0.0 0.00 0.00 0.00 25 1019.0
20260501213139 18 306 0.0 0.0 0.00 0.00 0.00 27 1018.9
20260501212633 18 307 0.0 0.0 0.00 0.00 0.00 26 1019.0
20260501212127 18 273 0.0 0.0 0.00 0.00 0.00 25 1019.0
20260501211620 18 354 0.0 0.0 0.00 0.00 0.00 26 1019.0
20260501211114 18 279 0.0 0.0 0.00 0.00 0.00 25 1019.1
20260501210609 18 271 0.0 0.0 0.00 0.00 0.00 26 1019.1
20260501205556 18 271 0.0 0.0 0.00 0.00 0.00 26 1019.1
20260501205051 18 328 0.0 0.0 0.00 0.00 0.00 27 1019.2
20260501204544 17 288 0.0 0.0 0.00 0.00 0.00 26 1019.2
20260501204038 17 350 0.0 0.0 0.00 0.00 0.00 27 1019.2
20260501203532 17 344 0.0 0.0 0.00 0.00 0.00 26 1019.2
20260501203027 17 320 0.0 0.0 0.00 0.00 0.00 25 1019.2
20260501202520 17 315 0.0 0.0 0.00 0.00 0.00 27 1019.2
20260501202015 17 338 0.0 0.0 0.00 0.00 0.00 27 1019.2
20260501201509 17 314 0.0 0.0 0.00 0.00 0.00 28 1019.2
20260501201002 17 302 0.0 0.0 0.00 0.00 0.00 27 1019.2
20260501200456 17 326 0.0 0.0 0.00 0.00 0.00 26 1019.2
20260501195951 17 335 0.0 0.0 0.00 0.00 0.00 28 1019.2
20260501195444 17 344 0.0 0.0 0.00 0.00 0.00 27 1019.3
20260501194938 17 344 0.0 0.0 0.00 0.00 0.00 27 1019.4
20260501194432 17 346 0.0 0.0 0.00 0.00 0.00 28 1019.4
20260501193927 16 342 0.0 0.0 0.00 0.00 0.00 30 1019.4
20260501193420 16 347 0.0 0.0 0.00 0.00 0.00 27 1019.4
20260501192914 17 4 0.0 0.0 0.00 0.00 0.00 28 1019.4
20260501192408 17 357 0.0 0.0 0.00 0.00 0.00 30 1019.4
20260501191902 16 356 0.0 0.0 0.00 0.00 0.00 32 1019.5
20260501191356 16 338 0.0 0.0 0.00 0.00 0.00 31 1019.5
20260501190850 16 333 0.0 0.0 0.00 0.00 0.00 29 1019.5
20260501190344 16 348 0.0 0.0 0.00 0.00 0.00 29 1019.6
20260501185838 16 307 0.0 0.0 0.00 0.00 0.00 32 1019.7
20260501185332 16 353 0.0 0.0 0.00 0.00 0.00 29 1019.6
20260501184827 16 318 0.0 0.0 0.00 0.00 0.00 29 1019.7
20260501184320 16 275 0.0 0.0 0.00 0.00 0.00 30 1019.8
20260501183814 16 315 0.0 0.0 0.00 0.00 0.00 30 1019.8
20260501183308 16 334 0.0 0.0 0.00 0.00 0.00 32 1019.9
20260501182802 16 313 0.0 0.0 0.00 0.00 0.00 29 1019.9
20260501182256 16 26 0.0 0.0 0.00 0.00 0.00 29 1019.9
20260501181751 16 1 0.0 0.0 0.00 0.00 0.00 28 1020.0
20260501181244 15 348 0.0 0.0 0.00 0.00 0.00 30 1020.0
20260501180738 15 348 0.0 0.0 0.00 0.00 0.00 29 1020.0
20260501180232 15 262 0.0 0.0 0.00 0.00 0.00 33 1020.1
20260501175726 15 320 0.0 0.0 0.00 0.00 0.00 33 1020.1
20260501175220 15 301 0.0 0.0 0.00 0.00 0.00 33 1020.1
20260501174714 15 154 0.0 0.0 0.00 0.00 0.00 32 1020.1
20260501174208 15 169 0.0 0.0 0.00 0.00 0.00 35 1020.2
20260501173702 15 191 0.0 0.0 0.00 0.00 0.00 34 1020.2
20260501173156 14 255 0.0 0.0 0.00 0.00 0.00 35 1020.3
20260501172651 14 254 0.0 0.0 0.00 0.00 0.00 34 1020.3
20260501172144 14 254 0.0 0.0 0.00 0.00 0.00 35 1020.4
20260501171638 13 254 0.0 0.0 0.00 0.00 0.00 35 1020.4
20260501171132 13 254 0.0 0.0 0.00 0.00 0.00 36 1020.5
20260501170626 13 254 0.0 0.0 0.00 0.00 0.00 36 1020.6
20260501170120 13 306 0.0 0.0 0.00 0.00 0.00 38 1020.7
20260501165614 13 316 0.0 0.0 0.00 0.00 0.00 39 1020.7
20260501165108 13 325 0.0 0.0 0.00 0.00 0.00 41 1020.7
20260501164602 13 306 0.0 0.0 0.00 0.00 0.00 42 1020.7
20260501164057 12 325 0.0 0.0 0.00 0.00 0.00 45 1020.8
20260501163550 12 314 0.0 0.0 0.00 0.00 0.00 46 1020.8
20260501163044 12 325 0.0 0.0 0.00 0.00 0.00 46 1020.9
20260501162538 12 315 0.0 0.0 0.00 0.00 0.00 45 1020.9